Wind_Speed
39 39 38 36 35 34 33 33 35 37 37 37 38 39 42 43 43 42 39 36 33 31 30 29 29 29 30 30 32 34 34 34 37 37 35 34 35 34 34 33 33 32 31
38 39 38 38 36 35 34 35 36 37 38 38 38 41 43 45 45 44 43 40 37 35 32 31 31 32 32 33 35 37 37 37 40 41 41 37 36 37 37 36 35 34 33
35 37 39 37 35 34 34 35 36 38 40 41 42 42 43 44 44 43 42 39 36 33 31 31 31 32 32 34 36 38 40 41 41 43 44 43 38 38 38 38 37 36 35
37 39 38 36 35 35 36 37 38 39 41 42 43 43 42 42 41 38 37 36 34 32 30 30 30 31 33 35 37 40 42 43 43 44 44 45 43 40 38 38 38 37 36
41 42 42 42 42 42 42 42 42 42 43 43 43 42 40 39 38 36 35 34 32 30 30 31 31 33 35 37 39 41 43 44 45 44 44 44 43 42 39 36 37 37 36
47 48 48 48 49 49 49 48 47 46 45 45 43 40 39 37 35 33 33 32 32 31 32 33 35 36 38 39 41 42 43 43 43 43 42 42 41 39 38 36 35 36 36
52 54 55 55 55 56 56 55 54 51 50 49 47 42 39 36 33 32 32 33 33 34 35 37 38 40 40 41 41 41 40 39 39 38 38 37 37 36 35 35 34 36 37
50 54 56 58 58 59 59 58 57 54 54 50 45 42 40 38 35 35 34 34 35 37 38 40 40 41 41 40 38 36 35 34 33 32 32 32 32 32 33 33 34 35 36
46 50 54 57 58 59 59 58 55 54 50 48 44 43 41 39 37 36 35 36 37 38 39 39 39 38 37 36 33 32 30 29 28 28 28 28 29 31 32 33 34 36 36
44 47 51 54 56 57 58 57 55 53 51 47 43 42 40 37 36 36 36 36 37 37 38 36 35 34 33 32 30 29 27 27 27 26 26 27 27 28 30 32 32 34 35
43 45 48 50 52 53 53 53 52 50 47 45 40 39 39 36 34 35 35 35 36 36 35 33 32 32 31 30 29 28 27 26 26 26 26 26 25 26 27 29 31 33 34
41 42 44 45 45 44 44 44 45 44 42 42 39 37 36 35 34 36 36 35 35 34 33 32 32 32 31 30 29 28 28 27 27 27 26 26 26 26 25 27 27 28 31
40 40 40 39 37 35 34 34 36 36 35 35 35 34 32 32 32 34 34 33 33 33 32 32 31 31 30 29 29 28 28 28 28 28 28 27 27 27 25 25 25 24 25
38 36 33 30 27 25 25 26 28 29 30 30 30 30 30 30 31 32 33 32 32 32 31 31 31 30 29 29 28 28 28 28 28 27 28 28 28 28 27 26 25 23 21
34 30 27 22 20 19 18 21 23 25 26 27 26 26 27 28 29 30 31 31 30 30 30 30 29 29 29 28 28 27 27 28 28 28 28 28 29 29 29 29 28 26 24
29 25 22 20 17 16 18 19 20 21 23 24 24 25 26 27 28 28 29 28 28 28 29 29 28 28 27 27 27 27 27 27 28 28 28 29 29 30 31 31 30 29 28
25 22 20 18 17 16 15 16 18 20 21 22 23 24 25 26 27 27 27 27 27 27 27 27 26 26 25 25 25 25 26 26 27 27 27 28 28 29 31 31 32 32 32
21 19 17 16 16 15 15 15 17 18 20 20 21 22 23 24 25 25 24 25 24 24 24 23 23 23 22 23 23 23 24 24 24 25 25 26 27 28 29 30 31 32 33
19 17 15 14 14 14 14 14 15 16 17 18 18 19 20 21 21 21 21 21 20 20 19 18 18 19 20 21 21 21 21 21 21 21 22 23 23 25 26 28 29 31 32
16 15 14 13 12 12 12 12 12 13 14 14 15 16 17 17 17 17 16 16 15 15 15 16 17 17 18 18 18 18 18 18 18 18 19 19 20 22 23 24 26 27 28
15 14 13 12 11 10 10 10 10 11 12 12 12 13 13 13 13 12 12 12 12 13 13 14 14 14 14 14 14 15 15 16 17 18 19 20 21 22 23 25 26 27 28
13 13 12 11 10 9 9 9 9 9 10 9 9 10 10 10 10 10 10 11 11 11 12 12 12 11 12 13 14 15 16 17 18 20 21 22 24 25 26 27 28 29 30
13 13 12 11 10 9 9 8 8 8 7 7 7 8 8 9 10 10 10 11 11 11 11 11 11 12 13 14 15 16 17 18 20 21 23 24 26 27 27 28 29 30 30
15 14 13 12 11 10 9 9 8 7 7 6 6 6 7 8 9 10 10 11 12 12 12 12 13 13 14 15 16 17 17 19 20 22 23 23 24 25 26 26 27 28 29
18 17 15 13 12 12 11 9 9 8 7 7 7 7 7 8 9 10 11 12 12 13 13 13 13 14 15 15 16 16 17 19 20 21 22 22 23 24 24 25 25 26 27
21 20 19 17 16 15 13 12 11 10 9 9 9 9 9 10 10 11 12 12 13 13 14 14 14 15 15 16 16 17 18 19 20 21 22 23 24 25 26 26 26 26 26
Wind_Direction
262 261 259 259 260 260 261 265 267 269 269 268 267 269 269 268 268 269 269 269 269 272 276 279 281 284 285 286 287 287 288 290 290 291 290 291 291 290 289 288 286 283 280
260 259 258 256 256 256 259 264 269 272 272 271 270 268 268 268 267 264 265 266 268 270 273 276 279 281 282 283 284 285 286 288 290 291 290 289 288 287 286 286 284 281 279
260 259 257 254 255 260 266 269 271 271 272 271 269 268 267 271 270 266 264 265 268 269 274 278 280 281 282 282 283 284 286 288 289 290 290 289 287 284 284 283 280 279 277
261 261 260 262 268 271 273 273 272 272 271 270 267 266 266 268 270 267 266 267 271 275 277 279 281 281 281 282 284 286 288 289 289 289 289 289 288 285 282 280 277 275 273
265 266 267 270 271 274 274 274 274 272 271 269 265 263 265 267 268 268 270 274 276 278 280 280 281 281 282 284 286 288 289 289 289 289 288 287 286 285 283 278 274 272 270
269 270 270 271 273 274 275 276 274 272 271 269 268 268 266 267 269 271 272 273 276 278 279 279 280 281 284 287 289 291 291 291 291 290 288 286 285 283 280 277 272 268 266
272 273 273 273 272 273 274 274 274 272 271 271 270 270 267 267 269 270 271 272 275 277 278 278 279 282 285 288 291 292 293 292 293 292 290 287 283 279 275 273 269 266 264
274 275 274 274 274 274 274 274 274 274 274 272 269 266 263 263 264 266 268 272 275 276 276 278 279 282 285 288 291 293 294 293 293 293 291 287 282 276 272 269 266 264 262
279 277 276 275 274 273 272 272 272 273 273 271 268 264 263 262 261 263 265 270 273 275 277 278 279 281 284 287 289 292 292 291 291 292 293 288 282 275 271 267 266 264 261
287 283 280 278 275 273 271 269 269 270 271 269 269 265 262 261 260 262 264 268 272 275 277 278 278 280 282 285 287 288 287 287 287 289 291 290 285 278 273 268 267 266 265
298 292 288 284 280 276 271 268 266 266 266 265 266 264 261 258 258 261 264 268 270 274 275 276 278 280 281 283 283 283 282 282 284 284 288 289 288 284 278 275 270 268 267
303 298 293 289 283 277 272 267 263 261 261 260 260 261 258 256 258 261 263 265 268 271 274 276 278 279 280 280 280 279 279 279 280 281 284 286 286 285 283 280 277 271 268
309 304 298 291 284 273 266 261 257 254 254 255 255 256 256 255 256 258 259 263 267 270 274 276 277 278 278 278 277 277 276 277 277 278 279 280 282 283 284 286 283 278 273
315 310 303 295 283 269 259 252 249 247 245 247 247 249 251 252 254 256 260 264 267 271 273 275 276 276 276 276 276 275 275 276 276 277 278 278 278 279 279 281 283 283 281
318 314 306 296 282 268 255 248 245 244 242 242 242 245 248 252 256 259 262 265 267 270 272 274 275 275 275 276 276 276 276 276 276 277 277 277 276 276 276 277 277 278 279
322 318 311 299 288 276 263 254 247 245 245 245 246 249 252 255 259 262 264 266 268 271 273 274 274 275 276 277 277 277 277 278 277 277 276 276 275 274 273 273 273 273 273
323 318 312 303 294 288 276 265 256 252 251 251 252 254 256 258 261 263 265 267 269 271 272 273 275 277 279 280 281 281 281 281 280 279 278 276 275 273 272 271 270 270 270
322 318 312 306 297 291 288 278 269 263 260 258 259 260 261 262 263 264 265 268 270 271 273 275 278 280 281 282 283 285 285 284 282 281 279 277 275 273 272 271 270 270 269
323 319 312 308 304 299 293 285 278 271 268 265 264 264 263 264 265 264 266 268 269 272 275 278 280 282 284 286 287 288 288 286 284 282 281 279 277 275 273 272 271 270 268
320 320 316 308 306 303 297 292 283 279 275 271 269 266 263 263 265 265 266 265 269 272 275 278 282 284 287 290 292 293 292 290 289 288 286 284 283 280 278 277 275 273 271
314 318 318 317 315 313 309 301 293 287 281 276 271 266 261 260 260 259 260 261 266 272 277 282 285 288 291 294 296 299 299 298 297 296 295 293 291 288 285 282 280 277 275
304 311 316 317 316 314 313 309 302 295 288 279 272 263 257 253 251 253 256 261 267 274 281 285 289 293 296 298 300 302 304 304 303 302 301 299 296 293 289 286 283 281 278
289 298 305 311 314 312 311 311 308 305 298 285 274 264 257 252 252 254 257 263 269 275 279 284 290 295 297 300 302 304 305 306 306 306 305 304 301 298 295 291 288 284 281
276 284 292 297 302 307 308 307 308 307 303 295 283 274 265 258 255 256 261 266 271 277 281 286 290 294 297 301 304 306 308 310 311 312 312 311 309 307 304 300 296 292 288
267 271 275 282 287 290 293 294 294 293 291 288 284 278 272 268 265 267 269 272 275 279 284 288 291 295 299 303 307 311 314 317 318 319 320 319 317 316 314 310 305 300 295
262 264 267 270 274 275 277 279 280 280 281 282 280 279 277 276 275 275 276 278 281 284 287 290 293 297 301 305 309 314 319 322 323 324 323 322 320 318 317 315 312 307 302
Height
5872 5872 5872 5872 5872 5872 5871 5871 5871 5870 5869 5869 5868 5868 5867 5867 5866 5866 5865 5865 5865 5865 5864 5864 5863 5863 5863 5862 5860 5859 5858 5857 5854 5853 5853 5852 5850 5849 5847 5845 5844 5843 5842
5862 5861 5861 5862 5862 5861 5862 5862 5862 5860 5860 5859 5858 5858 5857 5856 5856 5855 5855 5855 5855 5855 5855 5855 5854 5854 5854 5853 5852 5850 5849 5848 5845 5843 5842 5844 5843 5840 5838 5837 5836 5834 5834
5853 5852 5850 5849 5848 5850 5851 5852 5852 5851 5850 5850 5848 5847 5846 5845 5843 5842 5844 5845 5845 5845 5845 5845 5845 5845 5845 5844 5843 5841 5839 5839 5837 5833 5831 5831 5833 5831 5829 5827 5826 5826 5825
5844 5842 5840 5838 5839 5840 5841 5841 5841 5840 5840 5839 5837 5836 5835 5834 5833 5833 5833 5835 5835 5835 5836 5836 5837 5836 5836 5835 5834 5832 5830 5828 5827 5824 5821 5819 5819 5820 5820 5818 5816 5816 5816
5834 5833 5833 5832 5832 5831 5831 5831 5830 5830 5829 5828 5826 5823 5824 5824 5823 5823 5824 5825 5826 5827 5827 5828 5828 5828 5827 5826 5824 5822 5820 5817 5816 5814 5811 5809 5808 5807 5807 5808 5807 5805 5806
5825 5824 5824 5823 5823 5822 5822 5821 5820 5819 5817 5816 5814 5813 5814 5814 5814 5814 5815 5817 5818 5819 5819 5819 5819 5819 5818 5816 5815 5812 5810 5807 5805 5802 5800 5798 5797 5796 5795 5796 5796 5796 5796
5814 5813 5812 5812 5812 5811 5810 5810 5809 5806 5806 5805 5804 5804 5804 5804 5805 5806 5807 5809 5810 5810 5811 5811 5810 5809 5808 5807 5805 5802 5800 5797 5794 5792 5789 5787 5786 5785 5784 5784 5785 5785 5786
5804 5802 5800 5799 5798 5797 5796 5796 5796 5795 5794 5792 5792 5793 5794 5795 5796 5798 5799 5800 5801 5801 5802 5801 5800 5800 5798 5797 5795 5793 5790 5787 5785 5782 5780 5778 5776 5775 5775 5775 5775 5775 5776
5793 5790 5787 5785 5783 5782 5782 5782 5783 5783 5782 5782 5782 5782 5783 5785 5787 5788 5789 5791 5791 5792 5792 5791 5791 5790 5789 5787 5786 5784 5781 5779 5777 5775 5772 5770 5768 5767 5766 5765 5765 5765 5765
5781 5777 5773 5770 5768 5767 5767 5767 5768 5770 5770 5770 5770 5771 5773 5774 5776 5778 5780 5781 5782 5782 5782 5781 5781 5780 5779 5778 5777 5775 5774 5772 5770 5768 5765 5763 5761 5759 5758 5756 5755 5755 5756
5767 5762 5758 5754 5751 5750 5750 5751 5753 5756 5757 5758 5759 5760 5762 5764 5766 5768 5770 5771 5772 5773 5773 5772 5772 5771 5770 5769 5768 5767 5766 5764 5763 5761 5759 5757 5754 5752 5750 5748 5747 5746 5746
5755 5749 5744 5739 5736 5735 5735 5737 5739 5742 5745 5747 5748 5750 5752 5755 5757 5759 5761 5762 5763 5764 5764 5764 5763 5762 5761 5761 5760 5759 5758 5756 5755 5753 5752 5750 5748 5746 5744 5742 5740 5738 5738
5743 5737 5731 5726 5722 5722 5723 5725 5727 5730 5733 5736 5738 5741 5744 5746 5748 5750 5752 5753 5755 5755 5755 5755 5754 5754 5753 5752 5751 5750 5749 5748 5746 5745 5744 5743 5741 5739 5738 5736 5734 5732 5731
5734 5727 5721 5716 5714 5713 5714 5716 5718 5721 5724 5727 5730 5733 5735 5738 5740 5741 5743 5745 5746 5746 5746 5746 5746 5745 5745 5744 5743 5742 5740 5739 5738 5737 5736 5735 5734 5732 5731 5730 5729 5727 5726
5728 5722 5717 5712 5710 5708 5709 5710 5712 5714 5717 5720 5722 5725 5728 5730 5732 5734 5735 5736 5737 5738 5738 5738 5737 5737 5736 5735 5734 5733 5732 5731 5730 5729 5728 5727 5726 5725 5724 5723 5722 5722 5721
5724 5718 5714 5710 5708 5706 5706 5706 5708 5710 5712 5714 5716 5718 5721 5723 5724 5726 5727 5728 5729 5729 5730 5730 5729 5729 5728 5727 5726 5726 5724 5723 5722 5721 5720 5719 5718 5717 5716 5715 5715 5714 5714
5721 5716 5712 5709 5707 5705 5704 5704 5704 5706 5707 5709 5710 5712 5714 5715 5717 5718 5720 5721 5721 5722 5722 5722 5722 5721 5720 5720 5719 5718 5717 5716 5714 5713 5711 5710 5709 5708 5707 5706 5706 5706 5706
5719 5714 5710 5707 5705 5703 5702 5701 5701 5702 5702 5704 5705 5706 5708 5709 5710 5712 5713 5714 5714 5715 5715 5715 5715 5714 5713 5713 5712 5711 5709 5708 5707 5705 5704 5702 5701 5700 5699 5698 5697 5697 5697
5716 5712 5708 5705 5703 5701 5699 5698 5698 5698 5698 5699 5700 5701 5702 5704 5705 5706 5707 5707 5708 5709 5709 5709 5709 5708 5707 5706 5705 5704 5702 5701 5699 5698 5697 5695 5694 5692 5691 5690 5689 5688 5687
5714 5710 5706 5703 5701 5699 5697 5696 5695 5695 5695 5695 5696 5697 5698 5699 5700 5701 5702 5702 5703 5704 5704 5704 5703 5702 5701 5700 5699 5698 5696 5695 5694 5692 5691 5689 5688 5686 5684 5683 5681 5680 5679
5710 5707 5704 5701 5698 5696 5695 5693 5693 5692 5692 5692 5692 5693 5693 5694 5695 5697 5697 5698 5699 5699 5699 5699 5698 5698 5697 5695 5694 5693 5691 5690 5688 5687 5685 5684 5682 5680 5678 5676 5674 5673 5671
5706 5704 5701 5698 5696 5694 5693 5691 5691 5690 5689 5689 5689 5690 5690 5691 5692 5693 5694 5695 5695 5695 5695 5695 5694 5693 5692 5691 5690 5688 5687 5685 5683 5681 5679 5677 5675 5673 5671 5669 5666 5665 5663
5702 5700 5698 5696 5694 5692 5691 5690 5689 5688 5687 5687 5687 5687 5687 5688 5689 5690 5691 5691 5691 5692 5691 5691 5690 5689 5688 5687 5685 5684 5682 5680 5678 5676 5673 5671 5668 5665 5662 5660 5658 5656 5654
5696 5695 5694 5692 5691 5690 5688 5687 5686 5686 5685 5685 5685 5685 5685 5686 5686 5687 5687 5688 5688 5688 5688 5687 5686 5685 5684 5683 5681 5679 5677 5675 5673 5670 5667 5664 5661 5658 5654 5652 5649 5647 5644
5690 5689 5689 5688 5687 5686 5685 5685 5684 5684 5683 5683 5683 5683 5683 5683 5684 5684 5684 5684 5684 5684 5684 5683 5682 5681 5680 5678 5677 5675 5672 5670 5667 5664 5661 5658 5655 5651 5648 5645 5641 5638 5636
5682 5682 5682 5682 5682 5682 5681 5681 5681 5681 5680 5680 5680 5680 5680 5680 5680 5680 5680 5680 5680 5679 5679 5678 5677 5676 5675 5673 5671 5669 5667 5665 5662 5659 5656 5653 5649 5646 5642 5638 5634 5631 5628